Flight Track Log - Related Links

Times and Time Zones

All times are in EDT time to prevent confusion due to time zone crossing. See the KAP2826 flight status page for this flight to view local times or setup timezone preferences in your user account.

Time Position Orientation Groundspeed Altitude Reporting Facility
EDT Latitude Longitude Course Direction KTS MPH feet Rate Location/Type
Fri 03:34:00 PM 41.5407 -70.2037 159° South  Level FlightAware Approximate
Fri 03:35:00 PM 41.5197 -70.1932 159° South  Level FlightAware Approximate
Fri 03:36:00 PM 41.4987 -70.1827 159° South  Level FlightAware Approximate
Fri 03:37:00 PM 41.4778 -70.1722 159° South  Level FlightAware Approximate
Fri 03:38:00 PM 41.4570 -70.1609 156° South  Level FlightAware Approximate
Fri 03:39:00 PM 41.4366 -70.1486 156° South  Level FlightAware Approximate
Fri 03:40:00 PM 41.4162 -70.1364 156° South  Level FlightAware Approximate
Fri 03:41:00 PM 41.3957 -70.1241 156° South  Level FlightAware Approximate
Fri 03:42:00 PM 41.3751 -70.1125 159° South  Level FlightAware Approximate
Fri 03:43:00 PM 41.3541 -70.1020 159° South  Level FlightAware Approximate
Fri 03:44:00 PM 41.3331 -70.0916 159° South  Level FlightAware Approximate
Fri 03:45:00 PM 41.3121 -70.0811 159° South  Level FlightAware Approximate
Fri 03:46:00 PM 41.2912 -70.0706 159° South  Level FlightAware Approximate
Fri 03:47:00 PM 41.2702 -70.0601 159° South  Level FlightAware Approximate
Fri 03:48:00 PM 41.2500 -70.0500 159° South  Level FlightAware Approximate
Fri 03:49:00 PM 41.2531 -70.0603 159° South  Level Estimated
Fri 03:50:00 PM 41.2531 -70.0603 159° South  Level Estimated
Fri 03:51:00 PM 41.2531 -70.0603 159° South  Level Estimated
Fri 03:52:00 PM 41.2531 -70.0603 159° South  Level Estimated
Fri 03:53:00 PM 41.2531 -70.0603 159° South  Level Estimated

Login

Don't have an account? Register now (free) for customized features, flight alerts, and more!